Location: Perugia
(43.1330°N, 12.3670°E)
Time: 07:31:24
(UTC+01:00)

ISS - Visible Passes

Search period start: 20 January 2020 00:00
Search period end: 30 January 2020 00:00
Orbit: 415 x 421 km, 51.6° (Epoch: 20 January)

Date Brightness Start Highest point End Pass type
(mag) Time Alt. Az. Time Alt. Az. Time Alt. Az.
20 Jan -2.3 18:23:37 10° S 18:26:16 22° SE 18:26:49 21° ESE visible
20 Jan -0.3 19:59:33 10° WSW 19:59:47 12° WSW 19:59:47 12° WSW visible
21 Jan -1.5 17:36:47 10° SSE 17:38:28 13° SE 17:40:10 10° E visible
21 Jan -3.0 19:11:27 10° WSW 19:14:04 51° WSW 19:14:04 51° WSW visible
22 Jan -3.6 18:23:32 10° SW 18:26:50 60° SE 18:28:17 30° ENE visible
22 Jan -0.4 20:00:51 10° W 20:01:13 12° WNW 20:01:13 12° WNW visible
23 Jan -2.5 19:12:31 10° W 19:15:21 36° NW 19:15:21 36° NW visible
24 Jan -3.3 18:24:17 10° WSW 18:27:35 54° NNW 18:29:25 23° NE visible
24 Jan -0.3 20:02:17 10° WNW 20:02:21 10° WNW 20:02:21 10° WNW visible
25 Jan -3.7 17:36:10 10° WSW 17:39:32 85° NNW 17:42:55 10° ENE visible
25 Jan -1.9 19:13:53 10° WNW 19:16:22 23° NNW 19:16:22 23° NNW visible
26 Jan -2.3 18:25:29 10° W 18:28:28 29° NNW 18:30:20 18° NNE visible
27 Jan -1.6 19:15:14 10° NW 19:17:11 18° NNW 19:17:11 18° NNW visible
28 Jan -1.9 18:26:50 10° WNW 18:29:28 21° N 18:31:06 15° NNE visible
29 Jan -1.5 19:16:14 10° NW 19:17:55 18° NNW 19:17:55 18° NNW visible
